Home > Time Zones > World Clock > Weather > Canada > Ajax > Past weeks

Flag for Canada Weather past 2 weeks in Ajax, Ontario, Canada

Now
45 °F

Passing clouds.


Feels Like: 40 °F
Forecast: 44 / 61 °F
Wind: 9 mph from Northwest

Location: Toronto Buttonville

Current Time: Apr 27, 2015 at 10:38:56 PM

Latest Report: Apr 27, 2015 at 10:00 PM


Visibility: 15 mi

Pressure: 30.00 "Hg

Humidity: 66%

Dew point: 34 °F

Location of AjaxLocation

Historic Weather in Ajax — Graph

°F

Ajax temperature yesterday

Maximum temperature yesterday: 52 °F (at 1:00 PM)
Minimum temperature yesterday: 37 °F (at 2:00 AM)
Average temperature yesterday: 44 °F

Past Weeks' High & Low Weather Summary

 TemperatureHumidityPressure
High73 °F (Apr 13, 4:00 PM)100% (Apr 14, 5:00 AM)30.42 "Hg (Apr 14, 5:00 AM)
Low27 °F (Apr 25, 6:00 AM)20% (Apr 14, 4:00 PM)29.38 "Hg (Apr 20, 6:00 PM)
Average46 °F62%29.94 "Hg
* Reported Apr 12 9:00 PM — Apr 27 9:00 PM, Ajax, Weather by CustomWeather, © 2015

Note: Actual official high and low records may vary slightly from our data, if they occured in-between our weather recording intervals... More about our weather records

Advertising

Ajax weather history for previous 24 hours

 ConditionsComfort  
Time TempWeatherWind HumidityBarometerVisibility
9:00 PM
Mon, Apr 27
46 °FPassing clouds.8 mph62%29.98 "Hg15 mi
8:00 PM50 °FScattered clouds.15 mph54%29.96 "Hg15 mi
7:00 PM52 °FScattered clouds.17 mph54%29.94 "Hg15 mi
6:00 PM54 °FScattered clouds.14 mph54%29.93 "Hg15 mi
5:00 PM54 °FBroken clouds.15 mph54%29.91 "Hg15 mi
4:00 PM54 °FPartly sunny.20 mph54%29.90 "Hg15 mi
3:00 PM50 °FPartly sunny.15 mph67%29.91 "Hg15 mi
2:00 PM50 °FPartly sunny.20 mph62%29.90 "Hg15 mi
1:00 PM48 °FPartly sunny.15 mph66%29.90 "Hg15 mi
12:00 PM46 °FPartly sunny.17 mph66%29.89 "Hg15 mi
11:00 AM45 °FPartly sunny.20 mph71%29.88 "Hg15 mi
10:00 AM41 °FMostly cloudy.16 mph76%29.87 "Hg15 mi
9:00 AM41 °FMostly cloudy.14 mph76%29.86 "Hg15 mi
8:00 AM39 °FOvercast.13 mph81%29.85 "Hg15 mi
7:00 AM39 °FMostly cloudy.13 mph81%29.83 "Hg15 mi
6:00 AM39 °FMostly cloudy.10 mph81%29.82 "Hg15 mi
5:00 AM41 °FPassing clouds.15 mph81%29.81 "Hg15 mi
4:00 AM41 °FPassing clouds.10 mph81%29.81 "Hg15 mi
3:00 AM43 °FPassing clouds.7 mph76%29.80 "Hg15 mi
2:00 AM43 °FPassing clouds.7 mph76%29.80 "Hg15 mi
1:00 AM43 °FPassing clouds.8 mph76%29.80 "Hg15 mi
12:00 AM45 °FOvercast.12 mph66%29.81 "Hg15 mi
11:00 PM
Sun, Apr 26
45 °FOvercast.14 mph66%29.82 "Hg15 mi
10:00 PM45 °FPassing clouds.9 mph61%29.83 "Hg15 mi
Weather by CustomWeather, © 2015

See weather overviewHow to use our weather pages